Regional Weather Roundup
Issued by NWS Green Bay, WI

Home | Current Version | Previous Version | Graphics & Text | Print | Product List | Glossary Off
Versions: 1 2 3 4 5 6 7 8 9 10 11 12 13 14 15 16 17 18 19 20 21 22 23 24 25 26 27 28 29 30 31 32 33 34 35 36 37 38 39 40 41 42 43 44 45 46 47 48 49 50

000
ASUS43 KGRB 152311
RWRGRB

NORTH-CENTRAL AND NORTHEAST WISCONSIN REGIONAL WEATHER ROUNDUP
NATIONAL WEATHER SERVICE GREEN BAY WI
500 PM CST MON JAN 15 2018

WIZ005-009-010>012-018-019-160000-
NORTH CENTRAL WISCONSIN

CITY           SKY/WX    TMP DP  RH WIND       PRES   REMARKS
IRONWOOD       CLOUDY    18  14  84 CALM      30.34R
MANITOWISH WTR MOCLDY    16  14  91 N5        30.27R WCI   9
ARBOR VITAE    FAIR      19  17  89 N5        30.26R
EAGLE RIVER    LGT SNOW  18  13  84 N5        30.25R
LAND O LAKES   LGT SNOW  19  17  88 N5        30.27R
RHINELANDER    CLOUDY    18  15  88 NE6       30.25R WCI  10
PHILLIPS       LGT SNOW  16  13  89 N5        30.26R WCI   9
ANTIGO         CLOUDY    18  14  85 NE10      30.23R WCI   6
TOMAHAWK       LGT SNOW  19  16  86 N5        30.25R
MERRILL        FLURRIES  20  18  89 NE6       30.24R
$$

WIZ013-073-160000-
NORTHEAST WISCONSIN

CITY           SKY/WX    TMP DP  RH WIND       PRES   REMARKS
IRON MOUNTAIN  CLOUDY    18  13  80 NE5       30.28R
MARINETTE      LGT SNOW  20  17  88 NE9       30.30R FOG     WCI   9
OCONTO         CLOUDY    19  16  89 NE5       30.29R
$$

WIZ017-030-035>037-045-160000-
CENTRAL WISCONSIN

CITY           SKY/WX    TMP DP  RH WIND       PRES   REMARKS
MEDFORD        LGT SNOW  17  14  87 N9        30.24R WCI   5
WAUSAU         LGT SNOW  20  16  84 NE6       30.22R FOG
MOSINEE        LGT SNOW  19  18  93 N5        30.23R
MARSHFIELD     LGT SNOW  18  15  88 NW10      30.22R VSB 1   WCI   6
WISC RAPIDS    LGT SNOW  19  14  81 N9        30.25R WCI   8
STEVENS POINT  MIX PCPN  19  18  95 NE6       30.24R
WAUPACA        LGT SNOW  24  20  85 N5        30.24R
SHAWANO        CLOUDY    23  18  81 NE9       30.26R
CLINTONVILLE   CLOUDY    21  18  86 E9        30.26R
WAUTOMA        LGT SNOW  20  18  92 NW5       30.23R VSB 1
$$

WIZ038-039-048-051-160000-
FOX VALLEY

CITY           SKY/WX    TMP DP  RH WIND       PRES   REMARKS
NWS GREEN BAY  FLURRIES  20  16  84 NE13      30.26R WCI   7
APPLETON       LGT SNOW  21  18  86 NE12      30.21R WCI   9
OSHKOSH        LGT SNOW  22  19  89 NE12      30.22R FOG
FOND DU LAC    LGT SNOW  23  18  81 NE7       30.20R
$$

WIZ022-050-052-160000-
EAST CENTRAL WISCONSIN

CITY           SKY/WX    TMP DP  RH WIND       PRES   REMARKS
EPHRAIM        LGT SNOW  19  17  89 NE5       30.27R
WASHINGTON ISL LGT SNOW  20  17  86 NE8       30.30R
STURGEON BAY   LGT SNOW  20  17  88 N6        30.28R FOG
MANITOWOC      LGT SNOW  21  18  88 NE5       30.25R FOG
SHEBOYGAN      LGT SNOW  22  20  92 E8        30.21R FOG
$$

LMZ563-521-522-541>543-160000-
LAKESHORE

STATION/POSITION TIME  TEMP    WIND        PRES    VSBY  WAVE
                       AIR SEA DIR/SP/G                  HT/PER
                 (UTC) (F)     (DEG/KT/KT) (MB)    (MI)  (FT/S)
SHEBOYGAN LKSHOR 2300   23      60/ 13/ 15 1024.5R
KEWAUNEE LKSHORE 2248   22      40/  5/  9 1023.6R
NORTHPORT PIER   2230   22      CALM  /  2 1025.7R
SISTER BAY LKSHO 2220   21        CALM       N/A
MENOMINEE LKSHOR 2248   19     360/ 13/ 13 1025.4R
$$




USA.gov is the U.S. government's official web portal to all federal, state and local government web resources and services.